Regional Weather Roundup
Issued by NWS

Home | Current Version | Previous Version | Graphics & Text | Print | Product List | Glossary On
Versions: 1 2 3 4 5 6 7 8 9 10 11 12 13 14 15 16 17 18 19 20 21 22 23 24 25 26 27 28 29 30 31 32 33 34 35 36 37 38 39 40 41 42 43 44 45 46 47 48 49 50
000
ASUS43 KLSX 220759
RWRMO

WEATHER SUMMARY FOR MISSOURI
NATIONAL WEATHER SERVICE SPRINGFIELD MO
300 AM CDT MON SEP 22 2014

NOTE: "FAIR" INDICATES FEW OR NO CLOUDS BELOW 12,000 FEET WITH NO
       SIGNIFICANT WEATHER AND/OR OBSTRUCTIONS TO VISIBILITY.
       CURRENT SKY AND/OR WEATHER CONDITIONS ARE NOT AVAILABLE FOR
       CHILLICOTHE AND FARMINGTON.

MOZ001>031-035>038-043-044-053-054-220900-
...NORTHERN AND WESTERN MISSOURI...

CITY           SKY/WX    TMP DP  RH WIND       PRES   REMARKS
KANSAS CTY INT CLEAR     52  47  83 CALM      30.27S
KANSAS C DTWN  CLEAR     55  51  86 CALM      30.27R
LEE`S SUMMIT   CLEAR     55  49  80 N3        30.27S
ST JOSEPH      CLEAR     45  45 100 N3        30.28S
KIRKSVILLE     CLEAR     48  46  93 NW3       30.24S

$$
MOZ066>068-077>081-088>096-101>105-220900-
...SOUTHWEST MISSOURI...

CITY           SKY/WX    TMP DP  RH WIND       PRES   REMARKS
SPRINGFIELD    CLEAR     55  49  80 CALM      30.22S
JOPLIN         CLEAR     54  51  90 NE3       30.24S

$$
MOZ032>034-039>042-045>050-055>058-069>072-220900-
...CENTRAL MISSOURI...

CITY           SKY/WX    TMP DP  RH WIND       PRES   REMARKS
COLUMBIA       CLEAR     52  50  93 NW5       30.23S
JEFFERSON CITY CLEAR     53  49  86 NW5       30.23R
ROLLA          CLEAR     50  47  89 CALM      30.20S
SEDALIA        CLEAR     54  48  80 NW5       30.25S
OSAGE BEACH    CLEAR     54  48  82 CALM      30.23S

$$
MOZ051-052-059>065-220900-
...EAST CENTRAL MISSOURI...

CITY           SKY/WX    TMP DP  RH WIND       PRES   REMARKS
ST LOUIS INTL  CLEAR     57  51  80 NW6       30.19S
SPIRIT OF STL  CLEAR     53  50  89 SW3       30.19R
ST CHARLES     CLEAR     57  50  77 N10       30.18S

$$
MOZ072>076-082>087-097>100-106>115-220900-
...SOUTH CENTRAL AND SOUTHEAST MISSOURI...

CITY           SKY/WX    TMP DP  RH WIND       PRES   REMARKS
CAPE GIRARDEAU CLEAR     52  50  93 W3        30.16R
FARMINGTON     CLEAR     54  48  82 NW5       30.20S
POPLAR BLUFF   CLEAR     56  49  77 N6        30.16R
WEST PLAINS    CLEAR     54  48  80 N6        30.22R

$$



USA.gov is the U.S. government's official web portal to all federal, state and local government web resources and services.